GW0392 Weather Reports


Display with metric or nautical units.
time (UTC)temp
F
wind
direction
speed
MPH
gust
MPH
rain 1hr
in
rain 24hr
in
rain mn
in
humidity
%
barometer
mb
20260506073044 69 224 0.0 1.0 0.00 0.00 0.00 75 1010.4
20260506072541 69 222 0.0 1.0 0.00 0.00 0.00 76 1010.3
20260506072039 69 221 1.0 1.0 0.00 0.00 0.00 75 1010.5
20260506071537 69 219 1.0 3.0 0.00 0.00 0.00 75 1010.4
20260506071034 69 222 0.0 1.0 0.00 0.00 0.00 75 1010.6
20260506070531 69 218 1.0 2.0 0.00 0.00 0.00 75 1010.3
20260506062509 66 222 0.0 0.0 0.00 0.00 0.00 79 1010.8
20260506062005 66 218 0.0 1.0 0.00 0.00 0.00 78 1011.1
20260506061501 66 228 0.0 0.0 0.00 0.00 0.00 78 1011.2
20260506060959 66 227 0.0 0.0 0.00 0.00 0.00 78 1011.3
20260506060457 66 227 0.0 0.0 0.00 0.00 0.00 77 1011.5
20260506050926 66 229 0.0 0.0 0.00 0.00 0.00 79 1011.8
20260506050424 66 230 0.0 0.0 0.00 0.00 0.00 77 1011.6
20260506044914 66 223 0.0 2.0 0.00 0.00 0.00 74 1011.4
20260506044412 66 221 0.0 0.0 0.00 0.00 0.00 76 1011.6
20260506043909 66 221 0.0 0.0 0.00 0.00 0.00 76 1011.8
20260506043406 66 221 0.0 0.0 0.00 0.00 0.00 77 1011.6
20260506042904 66 221 0.0 0.0 0.00 0.00 0.00 77 1011.7
20260506042403 67 221 0.0 1.0 0.00 0.00 0.00 75 1011.6
20260506041901 66 221 0.0 0.0 0.00 0.00 0.00 74 1011.7
20260506041358 67 221 0.0 0.0 0.00 0.00 0.00 75 1011.6
20260506040855 67 221 0.0 0.0 0.00 0.00 0.00 73 1011.7
20260506040352 67 221 0.0 0.0 0.00 0.00 0.00 73 1011.8
20260506035848 67 221 0.0 0.0 0.00 0.00 0.00 73 1011.6
20260506035346 67 221 0.0 0.0 0.00 0.00 0.00 73 1011.6
20260506034843 67 221 0.0 0.0 0.00 0.00 0.00 72 1011.7
20260506034340 67 221 0.0 0.0 0.00 0.00 0.00 72 1011.7
20260506033837 67 221 0.0 0.0 0.00 0.00 0.00 71 1012.0
20260506033334 68 221 0.0 0.0 0.00 0.00 0.00 71 1011.8
20260506032831 68 221 0.0 0.0 0.00 0.00 0.00 71 1012.1
20260506032328 68 221 0.0 0.0 0.00 0.00 0.00 71 1012.1
20260506031825 68 221 0.0 0.0 0.00 0.00 0.00 70 1012.2
20260506031322 68 221 0.0 0.0 0.00 0.00 0.00 70 1012.0
20260506030819 68 221 0.0 0.0 0.00 0.00 0.00 69 1011.9
20260506030317 68 220 0.0 0.0 0.00 0.00 0.00 69 1011.7
20260506025814 68 222 0.0 0.0 0.00 0.00 0.00 68 1011.8
20260506025310 68 222 0.0 0.0 0.00 0.00 0.00 69 1011.9
20260506024808 68 222 0.0 0.0 0.00 0.00 0.00 68 1011.9
20260506024304 68 223 0.0 0.0 0.00 0.00 0.00 69 1012.0
20260506023800 68 227 0.0 0.0 0.00 0.00 0.00 69 1012.0
20260506023258 68 228 0.0 0.0 0.00 0.00 0.00 68 1012.2
20260506022754 68 224 0.0 0.0 0.00 0.00 0.00 69 1012.2
20260506022252 68 224 0.0 0.0 0.00 0.00 0.00 69 1012.0
20260506021750 69 224 0.0 0.0 0.00 0.00 0.00 68 1011.8
20260506021247 69 223 0.0 0.0 0.00 0.00 0.00 67 1011.7
20260506020743 69 234 0.0 0.0 0.00 0.00 0.00 66 1011.7
20260506020241 70 223 0.0 0.0 0.00 0.00 0.00 64 1011.6
20260506015738 70 211 1.0 1.0 0.00 0.00 0.00 64 1012.0
20260506015236 70 219 1.0 1.0 0.00 0.00 0.00 65 1011.7
20260506014732 70 210 1.0 1.0 0.00 0.00 0.00 64 1011.6
20260506014229 70 219 0.0 2.0 0.00 0.00 0.00 64 1011.5
20260506013726 70 220 1.0 1.0 0.00 0.00 0.00 65 1011.4
20260506013223 70 213 1.0 1.0 0.00 0.00 0.00 64 1011.6
20260506012719 69 219 0.0 0.0 0.00 0.00 0.00 64 1011.5
20260506012217 69 223 0.0 2.0 0.00 0.00 0.00 64 1011.3
20260506011714 69 215 1.0 2.0 0.00 0.00 0.00 66 1011.1
20260506011210 69 214 1.0 1.0 0.00 0.00 0.00 67 1011.3
20260506010709 68 220 2.0 2.0 0.00 0.00 0.00 68 1011.3
20260506010206 68 214 1.0 1.0 0.00 0.00 0.00 69 1011.1
20260506005703 68 218 1.0 2.0 0.00 0.00 0.00 70 1011.3
20260506005159 68 213 1.0 1.0 0.00 0.00 0.00 72 1011.1
20260506004655 68 218 0.0 1.0 0.00 0.00 0.00 70 1010.9
20260506004153 68 220 0.0 0.0 0.00 0.00 0.00 71 1011.3
20260506003649 67 219 0.0 1.0 0.00 0.00 0.00 74 1011.1
20260506003145 67 219 0.0 1.0 0.00 0.00 0.00 76 1011.1
20260506002641 67 220 1.0 1.0 0.00 0.00 0.00 77 1011.3
20260506002138 67 220 0.0 0.0 0.00 0.00 0.00 77 1011.2
20260506001633 67 220 0.0 0.0 0.00 0.00 0.00 78 1011.2
20260506001131 68 220 0.0 0.0 0.00 0.00 0.00 78 1011.3
20260506000628 68 220 0.0 0.0 0.00 0.00 0.00 76 1011.4
20260506000125 68 220 0.0 0.0 0.00 0.00 0.00 77 1011.4
20260505235623 68 220 0.0 0.0 0.00 0.00 0.00 76 1011.5
20260505235120 68 220 0.0 0.0 0.00 0.00 0.00 74 1011.7
20260505234617 68 220 0.0 0.0 0.00 0.00 0.00 74 1011.4
20260505234114 69 220 0.0 0.0 0.00 0.00 0.00 76 1011.5
20260505233611 69 220 0.0 0.0 0.00 0.00 0.00 73 1011.4
20260505233108 69 220 0.0 0.0 0.00 0.00 0.00 69 1011.3
20260505232606 70 219 0.0 0.0 0.00 0.00 0.00 68 1011.4
20260505232104 70 219 0.0 0.0 0.00 0.00 0.00 67 1011.4
20260505231600 70 223 0.0 2.0 0.00 0.00 0.00 66 1011.6
20260505231059 70 209 1.0 1.0 0.00 0.00 0.00 68 1011.5
20260505230556 70 218 0.0 1.0 0.00 0.00 0.00 70 1011.7
20260505230052 70 220 0.0 0.0 0.00 0.00 0.00 67 1011.5
20260505225549 70 218 1.0 1.0 0.00 0.00 0.00 66 1011.3
20260505225045 70 220 1.0 1.0 0.00 0.00 0.00 66 1011.4
20260505224542 69 223 0.0 2.0 0.00 0.00 0.00 66 1011.2
20260505224040 69 219 1.0 2.0 0.00 0.00 0.00 73 1011.0
20260505223537 69 215 0.0 1.0 0.00 0.00 0.00 68 1011.7
20260505223033 69 220 0.0 0.0 0.00 0.00 0.00 69 1011.6
20260505222529 69 220 0.0 0.0 0.00 0.00 0.00 72 1011.8
20260505222025 68 220 0.0 0.0 0.00 0.00 0.00 75 1011.6
20260505221523 68 220 0.0 1.0 0.00 0.00 0.00 75 1011.6
20260505221019 68 220 0.0 1.0 0.00 0.00 0.00 74 1011.4
20260505220517 68 221 0.0 1.0 0.00 0.00 0.00 78 1011.6
20260505220014 68 212 1.0 1.0 0.00 0.00 0.00 75 1011.7
20260505215512 68 223 0.0 1.0 0.00 0.00 0.00 69 1011.6
20260505215010 68 205 1.0 2.0 0.00 0.00 0.00 71 1011.5
20260505214508 69 225 0.0 1.0 0.00 0.00 0.00 76 1011.3
20260505214004 69 212 1.0 2.0 0.00 0.00 0.00 71 1011.4
20260505213502 69 233 1.0 3.0 0.00 0.00 0.00 67 1011.4
20260505212958 69 162 2.0 3.0 0.00 0.00 0.00 66 1011.2
20260505212455 69 183 1.0 2.0 0.00 0.00 0.00 69 1011.6
20260505211951 69 223 0.0 1.0 0.00 0.00 0.00 66 1011.8
20260505211449 70 220 0.0 0.0 0.00 0.00 0.00 68 1011.8
20260505210945 72 216 0.0 0.0 0.00 0.00 0.00 61 1011.9
20260505210442 73 223 0.0 0.0 0.00 0.00 0.00 54 1012.0
20260505205939 74 223 0.0 0.0 0.00 0.00 0.00 51 1011.9
20260505205438 75 204 2.0 3.0 0.00 0.00 0.00 45 1011.9
20260505204934 75 202 1.0 1.0 0.00 0.00 0.00 46 1012.0
20260505204432 75 222 0.0 2.0 0.00 0.00 0.00 46 1012.0
20260505203929 75 219 1.0 2.0 0.00 0.00 0.00 43 1011.8
20260505203425 76 218 1.0 2.0 0.00 0.00 0.00 44 1012.0
20260505202921 76 199 1.0 2.0 0.00 0.00 0.00 42 1012.1
20260505202418 76 224 0.0 3.0 0.00 0.00 0.00 42 1012.1
20260505201915 76 146 2.0 5.0 0.00 0.00 0.00 40 1012.2
20260505201412 76 183 3.0 7.0 0.00 0.00 0.00 41 1012.2
20260505200910 77 195 4.0 6.0 0.00 0.00 0.00 40 1012.4
20260505200407 77 207 1.0 3.0 0.00 0.00 0.00 42 1012.1
20260505195902 77 215 2.0 8.0 0.00 0.00 0.00 42 1012.5
20260505195400 78 224 2.0 5.0 0.00 0.00 0.00 42 1012.7
20260505194857 78 210 0.0 2.0 0.00 0.00 0.00 42 1012.5
20260505194354 78 214 1.0 5.0 0.00 0.00 0.00 41 1012.7
20260505193854 78 199 0.0 3.0 0.00 0.00 0.00 40 1012.5
20260505193353 79 182 3.0 9.0 0.00 0.00 0.00 37 1012.7
20260505192850 79 219 1.0 7.0 0.00 0.00 0.00 40 1012.7
20260505192348 78 191 2.0 11.0 0.00 0.00 0.00 38 1012.8
20260505191845 78 212 2.0 10.0 0.00 0.00 0.00 38 1012.8
20260505191344 79 177 2.0 6.0 0.00 0.00 0.00 36 1012.9
20260505190840 78 160 1.0 2.0 0.00 0.00 0.00 37 1013.0
20260505190336 78 226 0.0 6.0 0.00 0.00 0.00 37 1012.8
20260505185831 78 199 1.0 8.0 0.00 0.00 0.00 36 1012.9
20260505185328 80 239 2.0 5.0 0.00 0.00 0.00 34 1013.1
20260505184824 79 220 1.0 5.0 0.00 0.00 0.00 38 1013.0
20260505184321 78 227 1.0 5.0 0.00 0.00 0.00 41 1012.9
20260505183818 78 151 4.0 7.0 0.00 0.00 0.00 38 1013.0
20260505183315 78 246 2.0 7.0 0.00 0.00 0.00 42 1013.1
20260505182812 78 157 3.0 8.0 0.00 0.00 0.00 43 1013.0
20260505182309 78 124 2.0 5.0 0.00 0.00 0.00 45 1013.3
20260505181805 77 254 2.0 8.0 0.00 0.00 0.00 44 1013.4
20260505181303 78 122 6.0 10.0 0.00 0.00 0.00 42 1013.6
20260505180759 79 131 3.0 3.0 0.00 0.00 0.00 41 1013.7
20260505180256 78 221 4.0 6.0 0.00 0.00 0.00 40 1013.6
20260505175752 78 221 0.0 1.0 0.00 0.00 0.00 44 1013.5
20260505175249 78 198 1.0 5.0 0.00 0.00 0.00 44 1013.9
20260505174745 78 231 1.0 3.0 0.00 0.00 0.00 40 1013.6
20260505174243 78 220 1.0 2.0 0.00 0.00 0.00 41 1013.8
20260505173738 79 217 2.0 2.0 0.00 0.00 0.00 43 1013.8
20260505173235 78 225 2.0 6.0 0.00 0.00 0.00 42 1013.9
20260505172732 78 224 3.0 5.0 0.00 0.00 0.00 42 1013.7
20260505172229 77 228 0.0 2.0 0.00 0.00 0.00 45 1013.9
20260505171729 77 185 2.0 8.0 0.00 0.00 0.00 41 1014.1
20260505171226 77 212 3.0 3.0 0.00 0.00 0.00 42 1014.4
20260505170723 77 224 1.0 5.0 0.00 0.00 0.00 44 1014.5
20260505170220 76 216 2.0 3.0 0.00 0.00 0.00 46 1014.6
20260505165715 75 231 0.0 3.0 0.00 0.00 0.00 48 1014.6
20260505165212 75 200 0.0 3.0 0.00 0.00 0.00 47 1014.7
20260505164707 75 161 5.0 10.0 0.00 0.00 0.00 47 1014.8
20260505164204 75 188 2.0 7.0 0.00 0.00 0.00 48 1014.8
20260505163702 75 226 1.0 2.0 0.00 0.00 0.00 48 1014.5
20260505163201 76 190 2.0 5.0 0.00 0.00 0.00 49 1014.8
20260505162658 74 190 2.0 6.0 0.00 0.00 0.00 52 1014.9
20260505162155 75 116 2.0 5.0 0.00 0.00 0.00 52 1015.1
20260505161652 74 209 2.0 3.0 0.00 0.00 0.00 52 1014.7
20260505161149 74 221 2.0 7.0 0.00 0.00 0.00 54 1015.0
20260505160647 73 217 0.0 2.0 0.00 0.00 0.00 58 1015.0
20260505160144 73 181 3.0 5.0 0.00 0.00 0.00 55 1014.9
20260505153123 71 184 2.0 6.0 0.00 0.00 0.00 60 1015.3
20260505152620 71 217 1.0 3.0 0.00 0.00 0.00 61 1015.2
20260505152116 70 227 1.0 2.0 0.00 0.00 0.00 62 1015.3
20260505151611 70 223 1.0 5.0 0.00 0.00 0.00 63 1015.3
20260505151109 70 148 2.0 2.0 0.00 0.00 0.00 63 1015.5
20260505150605 70 227 1.0 3.0 0.00 0.00 0.00 62 1015.5
20260505140530 65 208 0.0 2.0 0.00 0.00 0.00 67 1015.3
20260505124944 55 228 0.0 0.0 0.00 0.00 0.00 89 1015.6
20260505124441 55 230 0.0 0.0 0.00 0.00 0.00 90 1015.4
20260505123937 54 230 0.0 0.0 0.00 0.00 0.00 91 1015.1
20260505123433 53 227 0.0 0.0 0.00 0.00 0.00 92 1015.1
20260505122929 53 227 0.0 0.0 0.00 0.00 0.00 92 1014.8
20260505122427 53 225 0.0 0.0 0.00 0.00 0.00 94 1014.8
20260505121923 52 225 0.0 0.0 0.00 0.00 0.00 94 1015.1
20260505121421 52 222 0.0 0.0 0.00 0.00 0.00 95 1014.7
20260505120916 51 225 0.0 0.0 0.00 0.00 0.00 97 1014.9
20260505120413 51 225 0.0 0.0 0.00 0.00 0.00 97 1014.9
20260505115912 51 225 0.0 0.0 0.00 0.00 0.00 98 1014.9
20260505115409 51 225 0.0 0.0 0.00 0.00 0.00 98 1014.7
20260505114907 50 225 0.0 0.0 0.00 0.00 0.00 98 1014.8
20260505114403 50 225 0.0 0.0 0.00 0.00 0.00 98 1014.8
20260505113859 50 226 0.0 0.0 0.00 0.00 0.00 98 1014.8
20260505113356 50 226 0.0 0.0 0.00 0.00 0.00 98 1014.5
20260505112851 50 226 0.0 0.0 0.00 0.00 0.00 98 1014.6
20260505112350 49 226 0.0 0.0 0.00 0.00 0.00 98 1014.4
20260505111845 49 226 0.0 0.0 0.00 0.00 0.00 98 1014.5
20260505111340 49 226 0.0 0.0 0.00 0.00 0.00 98 1014.4
20260505110836 49 226 0.0 0.0 0.00 0.00 0.00 98 1014.4
20260505110334 49 226 0.0 0.0 0.00 0.00 0.00 97 1014.4
20260505101809 48 226 0.0 0.0 0.00 0.00 0.00 97 1013.6
20260505101304 48 225 0.0 0.0 0.00 0.00 0.00 96 1013.8
20260505100801 49 226 0.0 0.0 0.00 0.00 0.00 96 1013.8
20260505100257 49 226 0.0 0.0 0.00 0.00 0.00 96 1013.7
20260505095753 49 226 0.0 0.0 0.00 0.00 0.00 96 1013.6
20260505095251 49 226 0.0 0.0 0.00 0.00 0.00 96 1013.5
20260505094746 49 224 0.0 0.0 0.00 0.00 0.00 95 1013.6
20260505094243 49 224 0.0 0.0 0.00 0.00 0.00 95 1013.5
20260505093739 49 224 0.0 0.0 0.00 0.00 0.00 95 1013.4
20260505093237 50 224 0.0 0.0 0.00 0.00 0.00 95 1013.4
20260505092733 50 224 0.0 0.0 0.00 0.00 0.00 95 1013.4
20260505092232 50 227 0.0 0.0 0.00 0.00 0.00 95 1013.7
20260505091729 50 227 0.0 0.0 0.00 0.00 0.00 95 1013.6
20260505091228 50 228 0.0 0.0 0.00 0.00 0.00 94 1013.6
20260505090725 50 229 0.0 0.0 0.00 0.00 0.00 94 1013.5
20260505090223 50 226 0.0 0.0 0.00 0.00 0.00 94 1013.6
20260505085720 50 227 0.0 0.0 0.00 0.00 0.00 94 1013.1
20260505085218 50 225 0.0 0.0 0.00 0.00 0.00 93 1013.5
20260505084715 50 226 0.0 0.0 0.00 0.00 0.00 93 1013.5
20260505084214 50 225 0.0 0.0 0.00 0.00 0.00 93 1013.5
20260505083710 50 227 0.0 0.0 0.00 0.00 0.00 93 1013.4
20260505083207 50 224 0.0 0.0 0.00 0.00 0.00 92 1013.6
20260505082703 50 225 0.0 0.0 0.00 0.00 0.00 92 1013.5
20260505082201 51 224 0.0 0.0 0.00 0.00 0.00 92 1013.7
20260505081656 51 225 0.0 0.0 0.00 0.00 0.00 92 1013.5
20260505081154 51 225 0.0 0.0 0.00 0.00 0.00 91 1013.9
20260505080651 51 225 0.0 0.0 0.00 0.00 0.00 91 1013.6
20260505080146 51 225 0.0 0.0 0.00 0.00 0.00 91 1013.6